Location: Molveno
(46.1500°N, 10.9667°E)
Time: 15:17:56
(UTC+00:00)

Cosmos 1892 - Pass Details

Date: 05 July 2020
Orbit: 505 x 524 km, 82.5° (Epoch: 11 August)

Event Time Altitude Azimuth Distance (km) Brightness Sun altitude
Exits shadow 21:06:51 24° 117° (ESE) 1,098 3.9 -14.8°
Maximum altitude 21:07:52 27° 90° (E) 1,009 3.9 -14.9°
Drops below altitude 10° 21:11:06 10° 32° (NNE) 1,739 5.7 -15.2°
Sets 21:13:27 0° 20° (NNE) 2,634 6.9 -15.4°
